User: anonymous
Location: Unspecified
(0.0000°N, 0.0000°E)
Time: 16:04:46
(UTC+02:00)
Language:

Cosmos 2251 - Orbit

View from above orbital plane
View from above orbital plane
View from above satellite
View from above satellite

Ground track
Ground track

The orbit data is extracted from the following two-line orbital elements,

1 22675U 93036A   14244.59677528  .00000061  00000-0  32225-4 0  3356
2 22675 074.0383 276.7047 0026343 283.8173 193.3512 14.32338250108040
Epoch (UTC): 01 September 2014 14:19:21
Eccentricity: 0.0026343
inclination: 74.0383°
perigee height: 765 km
apogee height: 803 km
right ascension of ascending node: 276.7047°
argument of perigee: 283.8173°
revolutions per day: 14.32338250
mean anomaly at epoch: 193.3512°
orbit number at epoch: 10804

The dashed part of the orbit path shows where the satellite is in the earth's shadow,  

DLR